Tracking 27126 objects as of 30-Mar-2023
HD Live streaming from Space Station
objects crossing your sky now

DIADEME 2

Track DIADEME 2 now!
10-day predictions
DIADEME 2 is classified as:


NORAD ID: 2680
Int'l Code: 1967-014A
Perigee: 584.5 km
Apogee: 1,653.7 km
Inclination: 39.4 °
Period: 107.5 minutes
Semi major axis: 7490 km
RCS: 0.6374 m2 (medium)
Launch date: February 15, 1967
Source: France (FR)
Launch site: HAMMA GUIRA SPACE TRACK RANGE (HGSTR)
Your satellite tracking list
Your tracking list is empty




NASA's NSSDC Master Catalog

Two Line Element Set (TLE):
1  2680U 67014A   23089.50257317  .00002574  00000-0  10539-2 0  9994
2  2680  39.4403 277.3596 0713755 193.3507 164.7395 13.39288883718785
Source of the keplerian elements: AFSPC